Location: Calmejanne
(44.7523°N, 1.9418°E)
Time: 05:40:59
(UTC+00:00)

ERS-1 Rocket - Pass Details

Date: 14 May 2026
Orbit: 746 x 751 km, 98.2° (Epoch: 6 June)

Event Time Altitude Azimuth Distance (km) Brightness Sun altitude
Exits shadow 20:06:23 - 168° (SSE) 2,874 5.5 -8.8°
Reaches altitude 10° 20:07:54 10° 169° (SSE) 2,267 5.0 -9.0°
Maximum altitude 20:12:54 81° 256° (WSW) 766 3.1 -9.7°
Drops below altitude 10° 20:17:56 10° 345° (NNW) 2,283 6.4 -10.4°
Sets 20:20:15 0° 346° (NNW) 3,212 7.2 -10.7°
